User: anonymous   Login
Location: ???? ?????????
(44.3677°N, 135.2344°E)
Time: 04:29:23
(UTC+00:00)
Language:

ATLAS 3B R/B - Orbit

View from above orbital plane
View from above orbital plane
View from above satellite
View from above satellite

Ground track
Ground track

The orbit data is extracted from the following two-line orbital elements,

1 28538U 05004B   25198.02727258 -.00000046  00000-0  61804-4 0  9997
2 28538  63.8244  53.5135 0215889 274.0910  83.5471 13.43339270 60147
Epoch (UTC): 17 July 2025 00:39:16
Eccentricity: 0.0215889
inclination: 63.8244°
perigee height: 935 km
apogee height: 1258 km
right ascension of ascending node: 53.5135°
argument of perigee: 274.0910°
revolutions per day: 13.43339270
mean anomaly at epoch: 83.5471°
orbit number at epoch: 6014

The dashed part of the orbit path shows where the satellite is in the earth's shadow,  

DLR